User: anonymous   Login
Location: Unspecified
(51.0950°N, 12.9690°E)
Time: 14:33:10
(UTC+00:00)
Language:

Cosmos 2369 Rocket - Orbit

View from above orbital plane
View from above orbital plane
View from above satellite
View from above satellite

Ground track
Ground track

The orbit data is extracted from the following two-line orbital elements,

1 26070U 00006B   22023.73034800  .00000071  00000-0  60730-4 0  9993
2 26070  71.0031  23.3475 0018484 308.7056  51.2413 14.15478679135431
Epoch (UTC): 23 January 2022 17:31:42
Eccentricity: 0.0018484
inclination: 71.0031°
perigee height: 827 km
apogee height: 854 km
right ascension of ascending node: 23.3475°
argument of perigee: 308.7056°
revolutions per day: 14.15478679
mean anomaly at epoch: 51.2413°
orbit number at epoch: 13543

The dashed part of the orbit path shows where the satellite is in the earth's shadow,  

DLR